Weather History for Belize, Belize

Change the Weather History Date:

Monday, August 26, 2013

  Actual Average Record
Temperature  
Mean Temperature 84 °F -  
Max Temperature 88 °F 88 °F 93 °F (2014)
Min Temperature 81 °F 75 °F 74 °F (2014)
Cooling Degree Days 20    
Growing Degree Days 34 (Base 50)    
Moisture  
Dew Point 77 °F    
Average Humidity 73    
Maximum Humidity 84    
Minimum Humidity 60    
Precipitation  
Precipitation 0.00 in 0.35 in - ()
Sea Level Pressure  
Sea Level Pressure 29.95 in    
Wind  
Wind Speed 9 mph ()    
Max Wind Speed 14 mph    
Max Gust Speed -    
Visibility 8.1 miles    
Events      
Averages and records for this station are not official NWS values.
T = Trace of Precipitation, MM = Missing Value Source: Averaged Metar Reports

Daily Weather History Graph

Daily Weather History Graph

Search for Another Location

Airport:

Trip Planner

Search our weather history database for the weather conditions in past years. The results will help you decide how hot, cold, wet, or windy it might be!

Date:

Astronomy

Aug. 26, 2013 Rise Set
Actual Time 5:38 AM CST 6:11 PM CST
Civil Twilight 5:16 AM CST 6:33 PM CST
Nautical Twilight 4:50 AM CST 6:59 PM CST
Astronomical Twilight 4:24 AM CST 7:25 PM CST
Moon 10:22 PM CST (8/26) 10:41 AM CST (8/26)
Length of Visible Light 13h 17m
Length of Day
12h 32m
Waning Gibbous, 66% of the Moon is Illuminated
Aug 26
Waning Gibbous
Aug 28
Last Quarter
Sep 5
New
Sep 12
First Quarter
Sep 19
Full

Hourly Weather History & Observations

Time (CST) Temp. Heat Index Dew Point Humidity Pressure Visibility Wind Dir Wind Speed Gust Speed Precip Events Conditions
12:00 AM 82 °F - 76 °F 78% 29.96 in 12 mi East 11.5 mph - -   Scattered Clouds
3:00 AM 82 °F - 76 °F 78% 29.94 in 12 mi SE 13.8 mph - -   Scattered Clouds
5:00 AM 82.4 °F 90.9 °F 77.0 °F 84% 29.92 in 6.2 mi East 13.8 mph - N/A   Mostly Cloudy
6:00 AM 82 °F - 76 °F 76% 29.96 in 12 mi East 11.5 mph - -   Scattered Clouds
6:00 AM 82.4 °F 89.5 °F 75.2 °F 79% 29.95 in 6.2 mi East 11.5 mph - N/A   Mostly Cloudy
7:00 AM 84.2 °F 94.1 °F 77.0 °F 79% 29.95 in 6.2 mi ESE 9.2 mph - N/A   Mostly Cloudy
8:00 AM 86.0 °F 96.9 °F 77.0 °F 74% 29.98 in 6.2 mi East 13.8 mph - N/A   Mostly Cloudy
9:00 AM 86 °F - 78 °F 72% 30.01 in 12 mi East 10.4 mph - -   Partly Cloudy
9:00 AM 86.0 °F 96.9 °F 77.0 °F 74% 30.00 in 6.2 mi East 10.4 mph - N/A   Mostly Cloudy
10:00 AM 87.8 °F 99.7 °F 77.0 °F 70% 30.00 in 6.2 mi East 9.2 mph - N/A   Mostly Cloudy
11:00 AM 87.8 °F 99.7 °F 77.0 °F 70% 29.99 in 6.2 mi East 10.4 mph - N/A   Mostly Cloudy
12:00 PM 87 °F - 76 °F 64% 29.99 in 12 mi East 9.2 mph - -   Partly Cloudy
12:00 PM 87.8 °F 99.7 °F 77.0 °F 70% 29.98 in 6.2 mi East 9.2 mph - N/A   Mostly Cloudy
1:00 PM 87.8 °F 99.7 °F 77.0 °F 70% 29.96 in 6.2 mi East 10.4 mph - N/A   Mostly Cloudy
2:00 PM 87.8 °F 99.7 °F 77.0 °F 70% 29.94 in 6.2 mi East 10.4 mph - N/A   Mostly Cloudy
3:00 PM 88 °F - 76 °F 60% 29.93 in 12 mi ENE 10.4 mph - -   Scattered Clouds
3:00 PM 87.8 °F 99.7 °F 77.0 °F 70% 29.93 in 6.2 mi ENE 10.4 mph - N/A   Mostly Cloudy
4:00 PM 87.8 °F 99.7 °F 77.0 °F 70% 29.92 in 6.2 mi East 10.4 mph - N/A   Mostly Cloudy
5:00 PM 86.0 °F 96.9 °F 77.0 °F 74% 29.91 in 6.2 mi East 6.9 mph - N/A   Mostly Cloudy
6:00 PM 85 °F - 77 °F 71% 29.92 in 12 mi East 4.6 mph - -   Scattered Clouds
6:00 PM 84.2 °F 94.1 °F 77.0 °F 79% 29.91 in 6.2 mi East 4.6 mph - N/A   Mostly Cloudy